Jefferson, NC

5:08 AM EDT on July 22, 2019 (GMT -0400)
Ashe County

Weather History for KGEV - May, 2019

Change the Weather History Date:

Wednesday, May 8, 2019

  Actual Average Record
Temperature  
Mean Temperature 62 °F -  
Max Temperature 71 °F 68 °F 79 °F (1986)
Min Temperature 53 °F 43 °F 27 °F (1981)
Degree Days  
Heating Degree Days 3    
Growing Degree Days 12 (Base 50)    
Moisture  
Dew Point 58 °F    
Average Humidity 87    
Maximum Humidity 100    
Minimum Humidity 62    
Precipitation  
Precipitation 0.00 in - - ()
Sea Level Pressure  
Sea Level Pressure 30.19 in    
Wind  
Wind Speed 1 mph (SSE)    
Max Wind Speed 8 mph    
Max Gust Speed -    
Visibility 8 miles    
Events Fog , Rain    
Averages and records for this station are not official NWS values.
T = Trace of Precipitation, MM = Missing Value Source: NWS Daily Summary

Daily Weather History Graph

Daily Weather History Graph

Search for Another Location

Airport or City:

Astronomy

May. 08, 2019 Rise Set
Actual Time 6:25 AM EDT 8:19 PM EDT
Civil Twilight 5:57 AM EDT 8:47 PM EDT
Nautical Twilight 5:23 AM EDT 9:22 PM EDT
Astronomical Twilight 4:46 AM EDT 9:58 PM EDT
Moon 9:23 AM EDT (5/8) No Moon Set
Length of Visible Light 14h 50m
Length of Day
13h 54m
Waxing Crescent, 15% of the Moon is Illuminated
May 8
Waxing Crescent
May 11
First Quarter
May 18
Full
May 26
Last Quarter
Jun 3
New

Hourly Weather History & Observations

Time (EDT) Temp. Dew Point Humidity Pressure Visibility Wind Dir Wind Speed Gust Speed Precip Events Conditions
12:05 AM 58.1 °F 56.7 °F 95% 30.23 in 10.0 mi Calm Calm - N/A   Clear
12:25 AM 57.6 °F 56.3 °F 96% 30.23 in 10.0 mi Calm Calm - N/A   Clear
12:45 AM 57.6 °F 56.3 °F 96% 30.23 in 10.0 mi Calm Calm - N/A   Clear
1:05 AM 57.6 °F 56.3 °F 96% 30.23 in 10.0 mi Calm Calm - N/A   Clear
1:25 AM 57.0 °F 56.1 °F 97% 30.22 in 10.0 mi Calm Calm - N/A   Clear
1:45 AM 56.3 °F 56.1 °F 99% 30.21 in 10.0 mi Calm Calm - N/A   Clear
2:05 AM 56.7 °F 55.2 °F 95% 30.21 in 10.0 mi Calm Calm - N/A   Clear
2:25 AM 56.3 °F 56.1 °F 99% 30.20 in 10.0 mi Calm Calm - N/A   Clear
2:45 AM 57.0 °F 56.5 °F 98% 30.20 in 10.0 mi Calm Calm - N/A   Scattered Clouds
3:05 AM 56.7 °F 56.1 °F 98% 30.19 in 10.0 mi Calm Calm - N/A   Scattered Clouds
3:25 AM 56.7 °F 56.3 °F 99% 30.19 in 10.0 mi Calm Calm - N/A   Scattered Clouds
3:45 AM 56.8 °F 56.1 °F 97% 30.19 in 10.0 mi Calm Calm - N/A   Clear
4:05 AM 56.7 °F 56.3 °F 99% 30.19 in 10.0 mi Calm Calm - N/A   Clear
4:25 AM 56.3 °F 55.8 °F 98% 30.19 in 7.0 mi South 3.5 mph - N/A   Scattered Clouds
4:45 AM 56.1 °F 55.8 °F 99% 30.19 in 7.0 mi Calm Calm - N/A   Clear
5:05 AM 56.3 °F 56.3 °F 100% 30.18 in 4.0 mi Calm Calm - N/A   Mostly Cloudy
5:25 AM 55.6 °F 55.6 °F 100% 30.18 in 0.2 mi Calm Calm - N/A Fog Fog
5:45 AM 55.4 °F 55.4 °F 100% 30.18 in 0.2 mi Calm Calm - N/A Fog Fog
6:05 AM 55.0 °F 55.0 °F 100% 30.19 in 0.2 mi Calm Calm - N/A Fog Fog
6:25 AM 54.5 °F 54.5 °F 100% 30.20 in 0.2 mi Calm Calm - N/A Fog Fog
6:45 AM 54.3 °F 54.3 °F 100% 30.20 in 0.2 mi Calm Calm - N/A Fog Fog
7:05 AM 53.8 °F 53.8 °F 100% 30.20 in 0.2 mi Calm Calm - N/A Fog Fog
7:25 AM 53.1 °F 53.1 °F 100% 30.20 in 0.2 mi Calm Calm - N/A Fog Fog
7:45 AM 53.8 °F 53.8 °F 100% 30.21 in 0.2 mi Calm Calm - N/A Fog Fog
8:05 AM 54.3 °F 54.3 °F 100% 30.22 in 0.2 mi Calm Calm - N/A Fog Fog
8:25 AM 55.6 °F 55.6 °F 100% 30.22 in 0.2 mi Calm Calm - N/A Fog Fog
8:45 AM 56.8 °F 56.8 °F 100% 30.22 in 0.2 mi Calm Calm - N/A Fog Fog
9:05 AM 57.7 °F 57.7 °F 100% 30.23 in 0.2 mi Calm Calm - N/A Fog Fog
9:25 AM 58.6 °F 58.5 °F 99% 30.23 in 5.0 mi Calm Calm - N/A   Mostly Cloudy
9:45 AM 60.8 °F 59.7 °F 96% 30.23 in 10.0 mi Calm Calm - N/A   Clear
10:05 AM 61.3 °F 58.6 °F 91% 30.23 in 10.0 mi Calm Calm - N/A   Clear
10:25 AM 62.6 °F 59.7 °F 90% 30.23 in 10.0 mi Calm Calm - N/A   Clear
10:45 AM 66.4 °F 57.7 °F 74% 30.23 in 10.0 mi Calm Calm - N/A   Clear
11:05 AM 68.0 °F 56.7 °F 67% 30.22 in 10.0 mi South 3.5 mph - N/A   Clear
11:25 AM 68.9 °F 57.6 °F 67% 30.22 in 10.0 mi SSE 3.5 mph - N/A   Clear
11:45 AM 69.4 °F 56.3 °F 63% 30.21 in 10.0 mi East 5.8 mph - N/A   Clear
12:05 PM 69.6 °F 57.9 °F 66% 30.21 in 10.0 mi SSE 5.8 mph - N/A   Scattered Clouds
12:25 PM 70.0 °F 58.5 °F 67% 30.20 in 10.0 mi ESE 5.8 mph - N/A   Overcast
12:45 PM 71.8 °F 59.0 °F 64% 30.20 in 10.0 mi South 4.6 mph - N/A   Overcast
1:05 PM 69.8 °F 58.1 °F 66% 30.20 in 10.0 mi Calm Calm - N/A   Overcast
1:25 PM 69.3 °F 59.0 °F 70% 30.19 in 10.0 mi SE 4.6 mph - N/A   Overcast
1:45 PM 67.8 °F 57.7 °F 70% 30.19 in 10.0 mi SSE 4.6 mph - N/A   Overcast
2:05 PM 67.1 °F 57.9 °F 72% 30.19 in 10.0 mi SE 3.5 mph - N/A   Overcast
2:25 PM 68.7 °F 60.8 °F 76% 30.18 in 10.0 mi SE 5.8 mph - N/A Rain Light Rain
2:45 PM 68.7 °F 59.2 °F 72% 30.17 in 10.0 mi SE 5.8 mph - N/A   Mostly Cloudy
3:05 PM 70.2 °F 58.5 °F 66% 30.16 in 10.0 mi SSE 3.5 mph - N/A   Scattered Clouds
3:25 PM 70.2 °F 57.9 °F 65% 30.16 in 10.0 mi SE 5.8 mph - N/A   Mostly Cloudy
3:45 PM 71.6 °F 57.9 °F 62% 30.15 in 10.0 mi SE 8.1 mph - N/A   Scattered Clouds
4:05 PM 70.3 °F 59.5 °F 69% 30.15 in 10.0 mi SE 5.8 mph - N/A   Mostly Cloudy
4:25 PM 69.3 °F 59.4 °F 71% 30.14 in 10.0 mi SE 4.6 mph - N/A   Scattered Clouds
4:45 PM 68.5 °F 58.6 °F 71% 30.14 in 10.0 mi SSE 4.6 mph - N/A   Mostly Cloudy
5:05 PM 70.5 °F 59.0 °F 67% 30.13 in 10.0 mi SSE 3.5 mph - N/A   Overcast
5:25 PM 70.0 °F 58.3 °F 66% 30.14 in 10.0 mi SSE 6.9 mph - N/A   Mostly Cloudy
5:45 PM 68.2 °F 59.5 °F 74% 30.14 in 10.0 mi SE 5.8 mph - N/A   Overcast
6:05 PM 66.9 °F 60.1 °F 79% 30.14 in 10.0 mi SSE 3.5 mph - N/A   Scattered Clouds
6:25 PM 66.4 °F 60.8 °F 82% 30.15 in 10.0 mi SE 4.6 mph - N/A   Mostly Cloudy
6:45 PM 66.2 °F 60.4 °F 82% 30.15 in 10.0 mi SSE 4.6 mph - N/A   Overcast
7:05 PM 65.5 °F 60.4 °F 84% 30.15 in 10.0 mi South 4.6 mph - N/A   Mostly Cloudy
7:25 PM 64.6 °F 58.1 °F 79% 30.15 in 10.0 mi South 4.6 mph - N/A   Mostly Cloudy
7:45 PM 63.7 °F 59.0 °F 85% 30.15 in 10.0 mi South 3.5 mph - N/A   Overcast
8:05 PM 63.0 °F 59.5 °F 89% 30.16 in 10.0 mi Calm Calm - N/A   Mostly Cloudy
8:25 PM 62.6 °F 59.9 °F 91% 30.16 in 10.0 mi SSE 3.5 mph - N/A   Overcast
8:45 PM 62.6 °F 60.1 °F 91% 30.16 in 4.0 mi SSE 3.5 mph - N/A   Overcast
9:05 PM 62.6 °F 60.1 °F 91% 30.17 in 4.0 mi SSE 3.5 mph - N/A   Overcast
9:25 PM 62.1 °F 59.9 °F 93% 30.17 in 10.0 mi Calm Calm - N/A   Overcast
9:45 PM 61.7 °F 59.9 °F 94% 30.17 in 10.0 mi Calm Calm - N/A   Overcast
10:05 PM 61.7 °F 59.4 °F 92% 30.17 in 10.0 mi Calm Calm - N/A   Scattered Clouds
10:25 PM 61.0 °F 59.0 °F 93% 30.18 in 10.0 mi Calm Calm - N/A   Clear
10:45 PM 60.8 °F 58.8 °F 93% 30.18 in 10.0 mi Calm Calm - N/A   Clear
11:05 PM 60.4 °F 58.6 °F 94% 30.19 in 10.0 mi Calm Calm - N/A   Clear
11:25 PM 59.9 °F 58.5 °F 95% 30.19 in 10.0 mi Calm Calm - N/A   Clear
11:45 PM 59.9 °F 58.5 °F 95% 30.19 in 10.0 mi Calm Calm - N/A   Scattered Clouds